| time (UTC) | temp F | wind direction | speed knots | gust knots | rain 1hr in | rain 24hr in | rain mn in | humidity % | barometer mb |
| 20260831063028 | 54 | 257 | 12.2 | 16.5 | 0.00 | 0.06 | 0.00 | 62 | 1009.6 |
| 20260831061527 | 54 | 246 | 11.3 | 13.9 | 0.00 | 0.06 | 0.00 | 61 | 1009.5 |
| 20260831060004 | 55 | 242 | 9.6 | 16.5 | 0.00 | 0.06 | 0.00 | 59 | 1009.6 |
| 20260831054506 | 55 | 253 | 12.2 | 16.5 | 0.00 | 0.06 | 0.00 | 58 | 1009.5 |
| 20260831053049 | 55 | 255 | 13.0 | 17.4 | 0.00 | 0.06 | 0.00 | 58 | 1009.4 |
| 20260831051555 | 56 | 257 | 15.6 | 20.9 | 0.00 | 0.06 | 0.00 | 55 | 1009.4 |
| 20260831050042 | 58 | 276 | 18.2 | 26.9 | 0.00 | 0.06 | 0.00 | 51 | 1009.4 |
| 20260831044542 | 59 | 275 | 19.1 | 26.1 | 0.00 | 0.06 | 0.00 | 49 | 1009.3 |
| 20260831043039 | 59 | 254 | 19.1 | 26.1 | 0.00 | 0.06 | 0.00 | 48 | 1009.3 |
| 20260831041537 | 60 | 267 | 17.4 | 25.2 | 0.00 | 0.06 | 0.00 | 48 | 1009.3 |
| 20260831040033 | 60 | 265 | 16.5 | 25.2 | 0.00 | 0.06 | 0.00 | 48 | 1009.3 |
| 20260831034533 | 60 | 266 | 15.6 | 22.6 | 0.00 | 0.06 | 0.00 | 48 | 1009.3 |
| 20260831033016 | 59 | 261 | 14.8 | 20.0 | 0.00 | 0.06 | 0.00 | 49 | 1009.4 |
| 20260831031514 | 60 | 264 | 17.4 | 21.7 | 0.00 | 0.06 | 0.00 | 48 | 1009.2 |
| 20260831030110 | 60 | 263 | 16.5 | 20.9 | 0.00 | 0.06 | 0.00 | 48 | 1009.1 |
| 20260831024621 | 59 | 243 | 10.4 | 16.5 | 0.00 | 0.06 | 0.00 | 49 | 1009.0 |
| 20260831023032 | 60 | 260 | 12.2 | 19.1 | 0.00 | 0.06 | 0.00 | 48 | 1008.9 |
| 20260831021531 | 61 | 249 | 15.6 | 26.1 | 0.00 | 0.06 | 0.00 | 46 | 1008.8 |
| 20260831020012 | 62 | 263 | 19.1 | 26.1 | 0.00 | 0.06 | 0.00 | 45 | 1008.5 |
| 20260831014511 | 62 | 267 | 18.2 | 26.1 | 0.00 | 0.06 | 0.00 | 43 | 1008.5 |
| 20260831013110 | 62 | 270 | 17.4 | 28.7 | 0.00 | 0.13 | 0.00 | 44 | 1008.5 |
| 20260831011551 | 62 | 284 | 19.1 | 26.9 | 0.00 | 0.13 | 0.00 | 44 | 1008.5 |
| 20260831010034 | 63 | 269 | 21.7 | 30.4 | 0.00 | 0.13 | 0.00 | 42 | 1008.4 |
| 20260831004533 | 64 | 297 | 18.2 | 27.8 | 0.00 | 0.13 | 0.00 | 41 | 1008.4 |
| 20260831003015 | 65 | 277 | 21.7 | 33.0 | 0.00 | 0.13 | 0.00 | 41 | 1008.2 |
| 20260831001515 | 65 | 274 | 23.5 | 33.9 | 0.00 | 0.13 | 0.00 | 41 | 1008.2 |
| 20260831000057 | 64 | 273 | 18.2 | 33.0 | 0.00 | 0.13 | 0.00 | 40 | 1008.0 |
| 20260830234604 | 64 | 275 | 20.9 | 33.0 | 0.00 | 0.13 | 0.00 | 41 | 1008.0 |
| 20260830233039 | 65 | 244 | 19.1 | 26.9 | 0.00 | 0.13 | 0.00 | 40 | 1007.9 |
| 20260830231539 | 65 | 258 | 19.1 | 26.1 | 0.00 | 0.13 | 0.00 | 41 | 1008.0 |
| 20260830230021 | 64 | 235 | 18.2 | 24.3 | 0.00 | 0.13 | 0.00 | 42 | 1008.1 |
| 20260830224522 | 64 | 229 | 17.4 | 23.5 | 0.00 | 0.13 | 0.00 | 42 | 1008.2 |
| 20260830223002 | 64 | 232 | 19.1 | 26.1 | 0.00 | 0.13 | 0.00 | 40 | 1008.3 |
| 20260830221501 | 64 | 234 | 16.5 | 26.9 | 0.00 | 0.13 | 0.00 | 41 | 1008.4 |
| 20260830220043 | 64 | 232 | 18.2 | 26.1 | 0.00 | 0.13 | 0.00 | 42 | 1008.4 |
| 20260830214542 | 65 | 225 | 19.1 | 26.1 | 0.00 | 0.13 | 0.00 | 40 | 1008.3 |
| 20260830213024 | 66 | 261 | 22.6 | 33.9 | 0.00 | 0.13 | 0.00 | 39 | 1008.3 |
| 20260830211524 | 66 | 268 | 22.6 | 29.5 | 0.00 | 0.13 | 0.00 | 40 | 1008.1 |
| 20260830210006 | 65 | 243 | 18.2 | 29.5 | 0.00 | 0.13 | 0.00 | 41 | 1008.2 |
| 20260830204508 | 65 | 252 | 24.3 | 33.9 | 0.00 | 0.13 | 0.00 | 45 | 1008.2 |
| 20260830203100 | 63 | 283 | 20.9 | 31.3 | 0.00 | 0.13 | 0.00 | 47 | 1008.0 |
| 20260830201549 | 65 | 248 | 17.4 | 24.3 | 0.00 | 0.13 | 0.00 | 41 | 1008.0 |
| 20260830200029 | 65 | 259 | 13.9 | 24.3 | 0.00 | 0.13 | 0.00 | 40 | 1007.9 |
| 20260830194528 | 65 | 267 | 14.8 | 22.6 | 0.00 | 0.13 | 0.00 | 38 | 1007.8 |
| 20260830193011 | 66 | 274 | 14.8 | 27.8 | 0.00 | 0.13 | 0.00 | 37 | 1007.7 |
| 20260830191511 | 67 | 238 | 10.4 | 17.4 | 0.00 | 0.13 | 0.00 | 36 | 1007.7 |
| 20260830190109 | 67 | 234 | 9.6 | 20.9 | 0.00 | 0.13 | 0.00 | 37 | 1007.5 |
| 20260830184549 | 66 | 202 | 11.3 | 19.1 | 0.00 | 0.13 | 0.00 | 39 | 1007.7 |
| 20260830183055 | 65 | 231 | 13.9 | 18.2 | 0.00 | 0.13 | 0.00 | 39 | 1007.9 |
| 20260830181528 | 64 | 210 | 14.8 | 19.1 | 0.00 | 0.13 | 0.00 | 43 | 1007.9 |
| 20260830180025 | 63 | 227 | 10.4 | 18.2 | 0.00 | 0.13 | 0.00 | 51 | 1008.0 |
| 20260830174505 | 63 | 224 | 10.4 | 14.8 | 0.00 | 0.13 | 0.00 | 55 | 1008.0 |
| 20260830173006 | 62 | 235 | 7.8 | 15.6 | 0.00 | 0.13 | 0.00 | 54 | 1007.8 |
| 20260830171545 | 61 | 216 | 8.7 | 13.0 | 0.00 | 0.13 | 0.00 | 58 | 1007.9 |
| 20260830170036 | 59 | 206 | 8.7 | 13.0 | 0.00 | 0.13 | 0.00 | 69 | 1008.2 |
| 20260830164530 | 58 | 219 | 7.0 | 10.4 | 0.00 | 0.13 | 0.00 | 75 | 1008.1 |
| 20260830163017 | 58 | 215 | 7.0 | 8.7 | 0.00 | 0.13 | 0.13 | 80 | 1008.1 |
| 20260830161557 | 57 | 221 | 6.1 | 7.8 | 0.00 | 0.13 | 0.13 | 83 | 1007.9 |
| 20260830160056 | 56 | 222 | 6.1 | 8.7 | 0.00 | 0.13 | 0.13 | 84 | 1007.9 |
| 20260830154538 | 56 | 208 | 7.0 | 9.6 | 0.00 | 0.13 | 0.13 | 82 | 1008.0 |
| 20260830153037 | 58 | 190 | 5.2 | 6.1 | 0.00 | 0.13 | 0.13 | 80 | 1008.0 |
| 20260830151535 | 58 | 182 | 4.3 | 6.1 | 0.00 | 0.13 | 0.13 | 80 | 1008.1 |
| 20260830150020 | 58 | 175 | 1.7 | 3.5 | 0.00 | 0.13 | 0.13 | 78 | 1008.3 |
| 20260830144501 | 58 | 46 | 0.0 | 0.9 | 0.00 | 0.13 | 0.13 | 80 | 1008.2 |
| 20260830143002 | 57 | 46 | 0.0 | 1.7 | 0.00 | 0.13 | 0.13 | 85 | 1008.1 |
| 20260830141543 | 56 | 46 | 0.0 | 3.5 | 0.00 | 0.13 | 0.13 | 88 | 1008.1 |
| 20260830140043 | 56 | 46 | 0.9 | 5.2 | 0.00 | 0.13 | 0.13 | 88 | 1008.3 |
| 20260830134528 | 55 | 12 | 2.6 | 4.3 | 0.00 | 0.13 | 0.13 | 88 | 1008.6 |
| 20260830133025 | 55 | 36 | 0.0 | 2.6 | 0.00 | 0.13 | 0.13 | 86 | 1008.6 |
| 20260830131505 | 55 | 237 | 1.7 | 3.5 | 0.00 | 0.13 | 0.13 | 86 | 1008.4 |
| 20260830130004 | 55 | 142 | 3.5 | 6.1 | 0.00 | 0.13 | 0.13 | 87 | 1008.2 |
| 20260830124603 | 55 | 130 | 5.2 | 7.0 | 0.00 | 0.13 | 0.13 | 85 | 1007.9 |
| 20260830123049 | 56 | 206 | 5.2 | 7.0 | 0.00 | 0.13 | 0.13 | 85 | 1008.2 |
| 20260830121525 | 56 | 141 | 4.3 | 6.1 | 0.00 | 0.13 | 0.13 | 84 | 1007.8 |
| 20260830120025 | 56 | 238 | 3.5 | 7.0 | 0.00 | 0.13 | 0.13 | 83 | 1007.9 |
| 20260830114506 | 56 | 246 | 5.2 | 7.8 | 0.00 | 0.13 | 0.13 | 86 | 1007.9 |
| 20260830113009 | 55 | 232 | 6.1 | 11.3 | 0.00 | 0.13 | 0.13 | 87 | 1007.9 |
| 20260830111548 | 55 | 224 | 7.0 | 8.7 | 0.00 | 0.13 | 0.13 | 87 | 1007.5 |
| 20260830110048 | 55 | 252 | 2.6 | 3.5 | 0.00 | 0.13 | 0.13 | 86 | 1006.9 |
| 20260830104529 | 56 | 252 | 4.3 | 5.2 | 0.00 | 0.13 | 0.13 | 85 | 1007.2 |
| 20260830103029 | 56 | 192 | 2.6 | 5.2 | 0.00 | 0.13 | 0.13 | 83 | 1006.9 |
| 20260830101511 | 56 | 247 | 5.2 | 9.6 | 0.00 | 0.13 | 0.13 | 81 | 1007.1 |
| 20260830100011 | 56 | 249 | 5.2 | 7.8 | 0.00 | 0.13 | 0.13 | 83 | 1007.1 |
| 20260830094556 | 56 | 233 | 3.5 | 7.8 | 0.00 | 0.13 | 0.13 | 85 | 1007.3 |
| 20260830093051 | 56 | 240 | 7.8 | 14.8 | 0.00 | 0.13 | 0.13 | 83 | 1007.5 |
| 20260830091532 | 57 | 263 | 8.7 | 13.0 | 0.00 | 0.13 | 0.13 | 80 | 1007.2 |
| 20260830090040 | 57 | 263 | 13.9 | 22.6 | 0.00 | 0.13 | 0.13 | 81 | 1007.4 |
| 20260830084518 | 57 | 266 | 13.9 | 21.7 | 0.01 | 0.13 | 0.13 | 82 | 1007.4 |
| 20260830083032 | 57 | 269 | 18.2 | 23.5 | 0.03 | 0.13 | 0.13 | 87 | 1007.5 |
| 20260830081552 | 57 | 267 | 16.5 | 23.5 | 0.04 | 0.13 | 0.13 | 87 | 1007.4 |
| 20260830080050 | 57 | 252 | 15.6 | 20.9 | 0.06 | 0.13 | 0.13 | 86 | 1007.8 |
| 20260830074543 | 57 | 254 | 13.9 | 18.2 | 0.05 | 0.12 | 0.12 | 86 | 1007.8 |
| 20260830073031 | 58 | 250 | 12.2 | 19.1 | 0.03 | 0.10 | 0.10 | 85 | 1007.6 |
| 20260830071512 | 58 | 221 | 7.8 | 10.4 | 0.02 | 0.09 | 0.09 | 85 | 1007.0 |
| 20260830070013 | 58 | 209 | 7.8 | 9.6 | 0.00 | 0.07 | 0.07 | 85 | 1007.1 |
| 20260830064550 | 58 | 194 | 5.2 | 7.0 | 0.00 | 0.07 | 0.07 | 85 | 1006.8 |